Hourly Data Report for February 05, 2005

TORONTO CITY
ONTARIO

43°40'00.000" N
79°24'00.000" W
112.50 m
6158355
71508
XTO

Download Data

Hourly Data (February 2005)
Hourly Data Report for February 5, 2005
TIME
LST
Temp Definition
°C
Dew Point Definition
°C
Rel Hum Definition
%
Precip. Amount Definition
mm

Wind Dir Definition
10's deg

Wind Spd Definition
km/h
Visibility Definition
km
Stn Press Definition
kPa
Hmdx Definition


Wind Chill Definition


Weather Definition


00:00 -0.2 -2.3 86   LegendMM LegendMM   101.46     LegendNANA
01:00 -0.3 -2.5 85   LegendMM LegendMM   101.45     LegendNANA
02:00 -0.8 -2.6 88   LegendMM LegendMM   101.50     LegendNANA
03:00 -1.1 -2.2 92   LegendMM LegendMM   101.55     LegendNANA
04:00 -1.0 -1.9 94   LegendMM LegendMM   101.58     LegendNANA
05:00 -0.9 -1.7 94   LegendMM LegendMM   101.60     LegendNANA
06:00 -1.6 -2.4 94   LegendMM LegendMM   101.60     LegendNANA
07:00 -2.0 -2.8 94   LegendMM LegendMM   101.64     LegendNANA
08:00 -1.5 -2.4 94   LegendMM LegendMM   101.70     LegendNANA
09:00 -0.3 -2.6 84   LegendMM LegendMM   101.75     LegendNANA
10:00 1.3 -2.6 75   LegendMM LegendMM   101.76     LegendNANA
11:00 2.3 -2.3 72   LegendMM LegendMM   101.77     LegendNANA
12:00 2.6 -1.9 72   LegendMM LegendMM   101.77     LegendNANA
13:00 2.2 -1.3 78   LegendMM LegendMM   101.73     LegendNANA
14:00 0.9 -1.7 83   LegendMM LegendMM   101.70     LegendNANA
15:00 0.9 -0.7 89   LegendMM LegendMM   101.69     LegendNANA
16:00 0.3 -0.7 93   LegendMM LegendMM   101.65     LegendNANA
17:00 0.7 -0.3 93   LegendMM LegendMM   101.67     LegendNANA
18:00 0.9 -0.9 88   LegendMM LegendMM   101.68     LegendNANA
19:00 0.6 -0.8 90   LegendMM LegendMM   101.73     LegendNANA
20:00 0.6 -0.5 92   LegendMM LegendMM   101.73     LegendNANA
21:00 0.3 -0.9 92   LegendMM LegendMM   101.76     LegendNANA
22:00 0.8 -0.6 90   LegendMM LegendMM   101.75     LegendNANA
23:00 0.7 -0.6 91   LegendMM LegendMM   101.71     LegendNANA

Notes on Data Quality.

Legend

  • E = Estimated
  • M = Missing
  • NA = Not Available*
  • [empty] = Indicates an unobserved value
Date modified: